• In Deutschland
  • Länderverzeichnis
  • Für 7 Tage
  • Wassertemperatur
  • Satellitenkarten
  • Wetterkarte
  • Widgets
  • user-avatar
    Anmelden

    Stündliche Wetter Hagen

    Heute, 18 Januar, Donnerstag

    Zeit Temperatur Niederschläge Wind Luftdruck Luftfeuchtigkeit
    00:00 0°C° 0,1 mm 5 m/S 736 mmHg 84%
    01:00 0°C° 0,2 mm 5 m/S 735 mmHg 84%
    02:00 0°C° 0,2 mm 5 m/S 734 mmHg 85%
    03:00 0°C° 0,2 mm 4 m/S 733 mmHg 85%
    04:00 +1°C° 1,4 mm 5 m/S 731 mmHg 86%
    05:00 +2°C° 1,4 mm 6 m/S 729 mmHg 86%
    06:00 +3°C° 1,4 mm 7 m/S 727 mmHg 86%
    07:00 +4°C° 0,6 mm 8 m/S 726 mmHg 85%
    08:00 +5°C° 0,6 mm 9 m/S 725 mmHg 84%
    09:00 +6°C° 0,6 mm 9 m/S 724 mmHg 82%
    10:00 +4°C° 0,1 mm 11 m/S 724 mmHg 77%
    11:00 +4°C° 0,1 mm 12 m/S 725 mmHg 72%
    12:00 +3°C° 0,1 mm 13 m/S 725 mmHg 66%
    13:00 +3°C° 0,2 mm 11 m/S 727 mmHg 68%
    14:00 +2°C° 0,2 mm 10 m/S 728 mmHg 70%
    15:00 +1°C° 0,2 mm 8 m/S 730 mmHg 72%
    16:00 +2°C° 0,2 mm 7 m/S 731 mmHg 75%
    17:00 +1°C° 0,2 mm 5 m/S 731 mmHg 78%
    18:00 +1°C° 0,2 mm 4 m/S 732 mmHg 81%
    19:00 +2°C° 0,8 mm 3 m/S 732 mmHg 83%
    20:00 +2°C° 0,8 mm 3 m/S 732 mmHg 86%
    21:00 +2°C° 0,8 mm 3 m/S 732 mmHg 88%
    22:00 +2°C° 0,5 mm 3 m/S 732 mmHg 88%
    23:00 +2°C° 0,5 mm 3 m/S 732 mmHg 88%

    Morgen, 19 Januar, Freitag

    Zeit Temperatur Niederschläge Wind Luftdruck Luftfeuchtigkeit
    00:00 +2°C° 0,5 mm 3 m/S 733 mmHg 88%
    01:00 0°C° 0,2 mm 4 m/S 733 mmHg 87%
    02:00 0°C° 0,2 mm 4 m/S 734 mmHg 86%
    03:00 0°C° 0,2 mm 4 m/S 734 mmHg 85%
    04:00 0°C° 0,1 mm 4 m/S 735 mmHg 85%
    05:00 0°C° 0,1 mm 4 m/S 735 mmHg 86%
    06:00 -1°C° 0,1 mm 4 m/S 736 mmHg 86%
    07:00 0°C° 0,1 mm 4 m/S 736 mmHg 85%
    08:00 0°C° 0,1 mm 4 m/S 736 mmHg 85%
    09:00 0°C° 0,1 mm 4 m/S 737 mmHg 85%
    10:00 0°C° 0 mm 5 m/S 737 mmHg 82%
    11:00 +1°C° 0 mm 5 m/S 737 mmHg 79%
    12:00 +1°C° 0 mm 5 m/S 737 mmHg 77%
    13:00 +1°C° 0,1 mm 4 m/S 737 mmHg 76%
    14:00 +1°C° 0,1 mm 4 m/S 737 mmHg 76%
    15:00 +1°C° 0,1 mm 4 m/S 737 mmHg 76%
    16:00 +1°C° 0,1 mm 3 m/S 737 mmHg 78%
    17:00 +1°C° 0,1 mm 3 m/S 737 mmHg 80%
    18:00 0°C° 0,1 mm 3 m/S 737 mmHg 82%
    19:00 0°C° 0,2 mm 3 m/S 737 mmHg 82%
    20:00 0°C° 0,2 mm 3 m/S 736 mmHg 83%
    21:00 0°C° 0,2 mm 3 m/S 736 mmHg 84%
    22:00 0°C° 0,2 mm 3 m/S 737 mmHg 84%
    23:00 -1°C° 0,2 mm 4 m/S 737 mmHg 84%

    übermorgen, 20 Januar, Samstag

    Zeit Temperatur Niederschläge Wind Luftdruck Luftfeuchtigkeit
    00:00 -1°C° 0,2 mm 4 m/S 737 mmHg 84%
    01:00 -2°C° 0,1 mm 4 m/S 737 mmHg 84%
    02:00 -2°C° 0,1 mm 4 m/S 737 mmHg 85%
    03:00 -2°C° 0,1 mm 4 m/S 737 mmHg 85%
    04:00 -2°C° 0,1 mm 4 m/S 737 mmHg 85%
    05:00 -2°C° 0,1 mm 4 m/S 737 mmHg 85%
    06:00 -2°C° 0,1 mm 5 m/S 737 mmHg 85%
    07:00 -2°C° 0,1 mm 5 m/S 737 mmHg 84%
    08:00 -2°C° 0,1 mm 5 m/S 737 mmHg 84%
    09:00 -2°C° 0,1 mm 5 m/S 738 mmHg 83%
    10:00 -1°C° 0,1 mm 5 m/S 737 mmHg 82%
    11:00 -1°C° 0,1 mm 4 m/S 737 mmHg 82%
    12:00 0°C° 0,1 mm 4 m/S 737 mmHg 81%
    13:00 0°C° 0,1 mm 4 m/S 737 mmHg 81%
    14:00 0°C° 0,1 mm 4 m/S 737 mmHg 82%
    15:00 +1°C° 0,1 mm 3 m/S 737 mmHg 83%
    16:00 0°C° 0,1 mm 3 m/S 738 mmHg 85%
    17:00 -1°C° 0,1 mm 3 m/S 738 mmHg 87%
    18:00 -1°C° 0,1 mm 3 m/S 739 mmHg 90%
    19:00 -1°C° 0 mm 3 m/S 739 mmHg 90%
    20:00 -2°C° 0 mm 3 m/S 740 mmHg 91%
    21:00 -2°C° 0 mm 3 m/S 740 mmHg 92%
    22:00 -2°C° 0 mm 3 m/S 741 mmHg 92%
    23:00 -2°C° 0 mm 3 m/S 741 mmHg 92%

    21 Januar, Sonntag

    Zeit Temperatur Niederschläge Wind Luftdruck Luftfeuchtigkeit
    00:00 -2°C° 0 mm 3 m/S 742 mmHg 92%
    01:00 -2°C° 0 mm 3 m/S 742 mmHg 92%
    02:00 -2°C° 0 mm 3 m/S 742 mmHg 92%
    03:00 -2°C° 0 mm 3 m/S 743 mmHg 93%
    04:00 -2°C° 0 mm 2 m/S 743 mmHg 93%
    05:00 -2°C° 0 mm 2 m/S 743 mmHg 93%
    06:00 -2°C° 0 mm 2 m/S 744 mmHg 93%
    07:00 -2°C° 0 mm 2 m/S 744 mmHg 92%
    08:00 -1°C° 0 mm 2 m/S 744 mmHg 91%
    09:00 -1°C° 0 mm 2 m/S 745 mmHg 89%
    10:00 +1°C° 0 mm 2 m/S 745 mmHg 87%
    11:00 +1°C° 0 mm 2 m/S 745 mmHg 85%
    12:00 +2°C° 0 mm 2 m/S 745 mmHg 83%
    13:00 +1°C° 0,3 mm 3 m/S 744 mmHg 84%
    14:00 +1°C° 0,3 mm 3 m/S 743 mmHg 84%
    15:00 0°C° 0,3 mm 3 m/S 743 mmHg 84%
    16:00 -1°C° 1,1 mm 4 m/S 742 mmHg 86%
    17:00 -1°C° 1,1 mm 4 m/S 741 mmHg 88%
    18:00 -1°C° 1,1 mm 5 m/S 741 mmHg 90%
    19:00 -1°C° 0,4 mm 4 m/S 740 mmHg 91%
    20:00 0°C° 0,4 mm 4 m/S 740 mmHg 92%
    21:00 +1°C° 0,4 mm 3 m/S 740 mmHg 93%
    22:00 +1°C° 0,8 mm 3 m/S 740 mmHg 95%
    23:00 +2°C° 0,8 mm 3 m/S 740 mmHg 96%

    22 Januar, Montag

    Zeit Temperatur Niederschläge Wind Luftdruck Luftfeuchtigkeit
    00:00 +3°C° 0,8 mm 2 m/S 740 mmHg 98%
    01:00 +3°C° 0,2 mm 3 m/S 740 mmHg 98%
    02:00 +4°C° 0,2 mm 3 m/S 741 mmHg 98%
    03:00 +5°C° 0,2 mm 3 m/S 741 mmHg 98%
    04:00 +5°C° 0,1 mm 3 m/S 741 mmHg 98%
    05:00 +4°C° 0,1 mm 3 m/S 742 mmHg 98%
    06:00 +5°C° 0,1 mm 2 m/S 742 mmHg 98%
    07:00 +5°C° 0 mm 2 m/S 742 mmHg 98%
    08:00 +5°C° 0 mm 2 m/S 743 mmHg 98%
    09:00 +5°C° 0 mm 2 m/S 743 mmHg 98%
    10:00 +6°C° 0,1 mm 2 m/S 743 mmHg 98%
    11:00 +6°C° 0,1 mm 2 m/S 743 mmHg 98%
    12:00 +7°C° 0,1 mm 2 m/S 743 mmHg 98%
    13:00 +7°C° 0,5 mm 3 m/S 743 mmHg 98%
    14:00 +7°C° 0,5 mm 3 m/S 743 mmHg 97%
    15:00 +7°C° 0,5 mm 3 m/S 742 mmHg 96%
    16:00 +7°C° 0,3 mm 4 m/S 742 mmHg 96%
    17:00 +7°C° 0,3 mm 4 m/S 742 mmHg 95%
    18:00 +8°C° 0,3 mm 4 m/S 742 mmHg 95%
    19:00 +8°C° 0,6 mm 5 m/S 742 mmHg 94%
    20:00 +8°C° 0,6 mm 5 m/S 742 mmHg 94%
    21:00 +8°C° 0,6 mm 5 m/S 742 mmHg 93%
    22:00 +8°C° 0,2 mm 5 m/S 743 mmHg 93%
    23:00 +8°C° 0,2 mm 5 m/S 743 mmHg 92%

    23 Januar, Dienstag

    Zeit Temperatur Niederschläge Wind Luftdruck Luftfeuchtigkeit
    00:00 +8°C° 0,2 mm 5 m/S 743 mmHg 92%
    01:00 +8°C° 0,1 mm 5 m/S 743 mmHg 91%
    02:00 +8°C° 0,1 mm 5 m/S 744 mmHg 91%
    03:00 +8°C° 0,1 mm 5 m/S 744 mmHg 90%
    04:00 +8°C° 0,1 mm 5 m/S 744 mmHg 90%
    05:00 +8°C° 0,1 mm 5 m/S 745 mmHg 90%
    06:00 +8°C° 0,1 mm 5 m/S 745 mmHg 89%
    07:00 +8°C° 0,1 mm 5 m/S 746 mmHg 89%
    08:00 +8°C° 0,1 mm 5 m/S 746 mmHg 89%
    09:00 +8°C° 0,1 mm 5 m/S 747 mmHg 89%
    10:00 +9°C° 0 mm 5 m/S 747 mmHg 86%
    11:00 +9°C° 0 mm 5 m/S 748 mmHg 83%
    12:00 +10°C° 0 mm 5 m/S 748 mmHg 80%
    13:00 +9°C° 0 mm 5 m/S 748 mmHg 81%
    14:00 +10°C° 0 mm 4 m/S 749 mmHg 83%
    15:00 +10°C° 0 mm 3 m/S 749 mmHg 84%
    16:00 +10°C° 0,1 mm 3 m/S 750 mmHg 86%
    17:00 +9°C° 0,1 mm 3 m/S 750 mmHg 88%
    18:00 +9°C° 0,1 mm 3 m/S 750 mmHg 91%
    19:00 +9°C° 0,1 mm 3 m/S 751 mmHg 91%
    20:00 +9°C° 0,1 mm 3 m/S 751 mmHg 91%
    21:00 +9°C° 0,1 mm 3 m/S 751 mmHg 91%
    22:00 +9°C° 0 mm 3 m/S 751 mmHg 92%
    23:00 +8°C° 0 mm 3 m/S 751 mmHg 92%
    Mehr zeigen